�������l�o���
Date,Time,MP-1(��Sv/h),MP-2(��Sv/h),MP-3(��Sv/h),MP-4(��Sv/h),MP-5(��Sv/h),MP-6(��Sv/h),MP-7(��Sv/h),MP-8(��Sv/h),����,����(m/s),���J
2018/01/19,00:00,0.864,1.436,0.901,1.697,1.146,0.485,0.860,0.829,��,3.0,��
2018/01/19,00:10,0.863,1.434,0.900,1.694,1.142,0.483,0.863,0.829,���k��,2.0,��
2018/01/19,00:20,0.866,1.432,0.901,1.694,1.146,0.482,0.861,0.830,��,3.5,��
2018/01/19,00:30,0.866,1.433,0.899,1.694,1.144,0.483,0.860,0.830,��,3.4,��
2018/01/19,00:40,0.864,1.434,0.899,1.696,1.143,0.484,0.863,0.829,���쐼,3.7,��
2018/01/19,00:50,0.866,1.430,0.900,1.696,1.144,0.484,0.860,0.830,���쐼,3.7,��
2018/01/19,01:00,0.866,1.435,0.902,1.695,1.146,0.484,0.861,0.828,���쐼,3.1,��
2018/01/19,01:10,0.866,1.434,0.901,1.696,1.143,0.483,0.862,0.828,��,3.2,��
2018/01/19,01:20,0.864,1.431,0.899,1.697,1.145,0.482,0.860,0.830,���k��,4.9,��
2018/01/19,01:30,0.864,1.432,0.900,1.697,1.145,0.483,0.860,0.830,���k��,6.5,��
2018/01/19,01:40,0.865,1.435,0.901,1.697,1.143,0.482,0.862,0.829,���k��,7.1,��
2018/01/19,01:50,0.864,1.435,0.901,1.696,1.144,0.483,0.861,0.827,���k��,8.2,��
2018/01/19,02:00,0.866,1.435,0.901,1.699,1.146,0.482,0.862,0.828,���k��,9.6,��
2018/01/19,02:10,0.864,1.432,0.901,1.697,1.146,0.482,0.861,0.829,���k��,8.7,��
2018/01/19,02:20,0.866,1.433,0.902,1.696,1.144,0.483,0.863,0.830,���k��,7.6,��
2018/01/19,02:30,0.864,1.435,0.900,1.698,1.146,0.480,0.861,0.829,�k��,7.2,��
2018/01/19,02:40,0.863,1.435,0.901,1.698,1.146,0.482,0.861,0.829,�k��,7.4,��
2018/01/19,02:50,0.868,1.434,0.900,1.697,1.144,0.484,0.862,0.829,�k��,7.8,��
2018/01/19,03:00,0.865,1.435,0.900,1.699,1.147,0.482,0.859,0.829,�k��,8.1,��
2018/01/19,03:10,0.863,1.436,0.899,1.697,1.147,0.482,0.861,0.831,�k��,8.1,��
2018/01/19,03:20,0.864,1.435,0.900,1.697,1.147,0.483,0.859,0.830,�k�k��,8.3,��
2018/01/19,03:30,0.863,1.436,0.900,1.695,1.145,0.482,0.862,0.829,�k�k��,7.4,��
2018/01/19,03:40,0.864,1.436,0.900,1.697,1.146,0.481,0.861,0.829,�k�k��,8.3,��
2018/01/19,03:50,0.864,1.435,0.899,1.699,1.145,0.485,0.859,0.831,�k�k��,7.1,��
2018/01/19,04:00,0.864,1.433,0.899,1.697,1.143,0.481,0.862,0.829,�k�k��,7.8,��
2018/01/19,04:10,0.864,1.433,0.899,1.697,1.146,0.483,0.862,0.830,�k�k��,7.8,��
2018/01/19,04:20,0.863,1.434,0.900,1.698,1.144,0.480,0.861,0.830,�k�k��,8.8,��
2018/01/19,04:30,0.864,1.434,0.901,1.696,1.144,0.481,0.862,0.830,�k�k��,7.9,��
2018/01/19,04:40,0.863,1.433,0.900,1.697,1.145,0.483,0.861,0.828,�k��,7.5,��
2018/01/19,04:50,0.864,1.436,0.900,1.699,1.145,0.481,0.862,0.831,�k��,7.3,��
2018/01/19,05:00,0.863,1.435,0.898,1.697,1.144,0.484,0.861,0.829,�k��,7.1,��
2018/01/19,05:10,0.864,1.435,0.899,1.698,1.146,0.482,0.861,0.828,�k��,6.3,��
2018/01/19,05:20,0.861,1.435,0.898,1.696,1.146,0.479,0.861,0.828,�k��,6.4,��
2018/01/19,05:30,0.862,1.434,0.898,1.699,1.144,0.481,0.862,0.831,�k��,6.3,��
2018/01/19,05:40,0.862,1.432,0.899,1.697,1.146,0.481,0.861,0.829,�k��,6.4,��
2018/01/19,05:50,0.861,1.433,0.898,1.698,1.143,0.481,0.861,0.828,�k��,5.8,��
2018/01/19,06:00,0.861,1.434,0.900,1.700,1.144,0.482,0.859,0.828,�k��,5.7,��
2018/01/19,06:10,0.862,1.434,0.907,1.696,1.145,0.481,0.860,0.828,�k��,5.8,��
2018/01/19,06:20,0.861,1.436,0.900,1.696,1.144,0.482,0.861,0.829,�k��,5.9,��
2018/01/19,06:30,0.863,1.435,0.898,1.698,1.144,0.480,0.861,0.829,�k��,6.2,��
2018/01/19,06:40,0.860,1.435,0.899,1.698,1.146,0.479,0.860,0.829,�k��,6.7,��
2018/01/19,06:50,0.862,1.433,0.899,1.697,1.142,0.481,0.860,0.828,�k��,7.0,��
2018/01/19,07:00,0.862,1.434,0.899,1.698,1.143,0.481,0.860,0.828,�k��,7.5,��
2018/01/19,07:10,0.862,1.436,0.899,1.697,1.145,0.480,0.861,0.829,�k��,9.1,��
2018/01/19,07:20,0.862,1.433,0.894,1.696,1.146,0.480,0.859,0.826,�k��,8.5,��
2018/01/19,07:30,0.863,1.434,0.886,1.695,1.144,0.480,0.861,0.830,�k��,9.0,��
2018/01/19,07:40,0.862,1.433,0.886,1.698,1.146,0.479,0.860,0.828,�k��,9.1,��
2018/01/19,07:50,0.861,1.435,0.896,1.698,1.147,0.480,0.861,0.829,�k��,8.3,��
2018/01/19,08:00,0.862,1.434,0.916,1.698,1.145,0.481,0.861,0.827,�k��,9.8,��
2018/01/19,08:10,0.862,1.435,0.919,1.699,1.147,0.480,0.863,0.829,�k��,9.9,��
2018/01/19,08:20,0.861,1.433,0.918,1.699,1.147,0.481,0.862,0.829,�k��,8.4,��
2018/01/19,08:30,0.864,1.433,0.919,1.699,1.146,0.479,0.861,0.829,�k��,8.4,��
2018/01/19,08:40,0.863,1.435,0.916,1.697,1.146,0.480,0.862,0.830,���k��,6.8,��
2018/01/19,08:50,0.863,1.435,0.916,1.699,1.146,0.481,0.861,0.831,���k��,7.4,��
2018/01/19,09:00,0.865,1.434,0.917,1.700,1.144,0.479,0.862,0.829,���k��,7.5,��
2018/01/19,09:10,0.862,1.432,0.917,1.700,1.147,0.481,0.863,0.828,���k��,8.0,��
2018/01/19,09:20,0.865,1.434,0.909,1.703,1.147,0.481,0.862,0.830,���k��,6.8,��
2018/01/19,09:30,0.863,1.434,0.900,1.701,1.150,0.480,0.864,0.829,���k��,6.1,��
2018/01/19,09:40,0.863,1.433,0.906,1.699,1.146,0.482,0.863,0.829,��,5.8,��
2018/01/19,09:50,0.864,1.433,0.906,1.701,1.146,0.481,0.862,0.829,���k��,6.0,��
2018/01/19,10:00,0.861,1.434,0.895,1.703,1.148,0.483,0.863,0.829,���k��,5.4,��
2018/01/19,10:10,0.862,1.434,0.905,1.704,1.150,0.481,0.863,0.830,���k��,5.4,��
2018/01/19,10:20,0.862,1.437,0.906,1.703,1.149,0.481,0.862,0.829,�k��,3.0,��
2018/01/19,10:30,0.862,1.433,0.908,1.702,1.148,0.481,0.865,0.828,�k��,3.5,��
2018/01/19,10:40,0.862,1.438,0.906,1.702,1.144,0.481,0.865,0.830,�k��,3.8,��
2018/01/19,10:50,0.863,1.434,0.908,1.701,1.148,0.482,0.863,0.829,�k��,5.3,��
2018/01/19,11:00,0.863,1.435,0.908,1.704,1.151,0.480,0.864,0.831,���k��,3.9,��
2018/01/19,11:10,0.865,1.434,0.908,1.703,1.149,0.482,0.861,0.830,�k��,3.9,��
2018/01/19,11:20,0.864,1.437,0.908,1.702,1.148,0.480,0.864,0.832,���k��,3.8,��
2018/01/19,11:30,0.865,1.439,0.908,1.705,1.149,0.481,0.864,0.831,�k��,3.0,��
2018/01/19,11:40,0.867,1.440,0.910,1.706,1.151,0.482,0.862,0.830,���k��,3.3,��
2018/01/19,11:50,0.864,1.437,0.911,1.706,1.150,0.482,0.863,0.829,�k��,3.7,��
2018/01/19,12:00,0.866,1.439,0.908,1.703,1.151,0.482,0.864,0.830,���k��,5.3,��
2018/01/19,12:10,0.866,1.439,0.909,1.704,1.149,0.483,0.862,0.831,�k��,5.3,��
2018/01/19,12:20,0.867,1.438,0.909,1.705,1.152,0.482,0.861,0.830,���k��,2.8,��
2018/01/19,12:30,0.867,1.438,0.910,1.708,1.151,0.483,0.862,0.832,��,3.5,��
2018/01/19,12:40,0.868,1.437,0.911,1.705,1.151,0.483,0.863,0.832,���k��,4.0,��
2018/01/19,12:50,0.866,1.437,0.912,1.704,1.149,0.482,0.862,0.831,���k��,2.0,��
2018/01/19,13:00,0.869,1.441,0.913,1.705,1.153,0.482,0.863,0.831,���k��,3.4,��
2018/01/19,13:10,0.866,1.437,0.910,1.703,1.153,0.483,0.864,0.832,�k��,3.0,��
2018/01/19,13:20,0.867,1.439,0.911,1.707,1.154,0.484,0.863,0.830,���k��,3.4,��
2018/01/19,13:30,0.866,1.436,0.910,1.707,1.154,0.482,0.864,0.833,�k��,4.7,��
2018/01/19,13:40,0.867,1.442,0.911,1.705,1.153,0.483,0.861,0.830,�k��,4.5,��
2018/01/19,13:50,0.868,1.437,0.910,1.704,1.153,0.483,0.864,0.831,�k��,4.5,��
2018/01/19,14:00,0.867,1.440,0.911,1.706,1.155,0.483,0.865,0.832,�k��,4.1,��
2018/01/19,14:10,0.870,1.436,0.914,1.705,1.154,0.482,0.863,0.831,�k�k��,4.2,��
2018/01/19,14:20,0.869,1.441,0.911,1.708,1.153,0.483,0.862,0.831,�k��,4.6,��
2018/01/19,14:30,0.869,1.440,0.914,1.706,1.155,0.483,0.862,0.831,�k�k��,5.4,��
2018/01/19,14:40,0.870,1.441,0.914,1.707,1.154,0.483,0.865,0.831,�k��,5.5,��
2018/01/19,14:50,0.870,1.443,0.913,1.708,1.154,0.483,0.862,0.830,�k�k��,4.4,��
2018/01/19,15:00,0.871,1.445,0.914,1.705,1.153,0.483,0.862,0.831,�k��,6.5,��
2018/01/19,15:10,0.869,1.445,0.913,1.707,1.154,0.486,0.864,0.831,�k��,5.1,��
2018/01/19,15:20,0.869,1.444,0.912,1.707,1.153,0.484,0.863,0.832,�k��,4.5,��
2018/01/19,15:30,0.870,1.442,0.914,1.708,1.153,0.484,0.864,0.831,�k�k��,4.9,��
2018/01/19,15:40,0.869,1.442,0.913,1.711,1.155,0.483,0.866,0.829,�k��,4.7,��
2018/01/19,15:50,0.868,1.443,0.913,1.708,1.153,0.483,0.864,0.832,�k�k��,4.5,��
2018/01/19,16:00,0.869,1.442,0.914,1.711,1.156,0.483,0.864,0.831,�k�k��,4.9,��
2018/01/19,16:10,0.868,1.442,0.912,1.710,1.156,0.485,0.865,0.831,�k,5.4,��
2018/01/19,16:20,0.868,1.446,0.911,1.708,1.153,0.484,0.865,0.829,�k,5.9,��
2018/01/19,16:30,0.864,1.445,0.912,1.710,1.152,0.483,0.865,0.833,�k�k��,6.7,��
2018/01/19,16:40,0.867,1.443,0.913,1.709,1.153,0.483,0.865,0.831,�k�k��,5.8,��
2018/01/19,16:50,0.866,1.445,0.911,1.709,1.153,0.483,0.865,0.830,�k�k��,6.0,��
2018/01/19,17:00,0.868,1.443,0.914,1.710,1.154,0.483,0.865,0.830,�k�k��,6.2,��
2018/01/19,17:10,0.864,1.446,0.911,1.705,1.154,0.482,0.864,0.830,�k�k��,5.5,��
2018/01/19,17:20,0.866,1.444,0.910,1.710,1.154,0.483,0.863,0.831,�k�k��,5.3,��
2018/01/19,17:30,0.867,1.443,0.912,1.709,1.152,0.483,0.864,0.832,�k�k��,5.3,��
2018/01/19,17:40,0.866,1.442,0.911,1.712,1.151,0.483,0.864,0.831,�k�k��,5.4,��
2018/01/19,17:50,0.866,1.446,0.912,1.711,1.152,0.483,0.864,0.831,�k�k��,5.8,��
2018/01/19,18:00,0.866,1.442,0.912,1.707,1.152,0.482,0.864,0.831,�k�k��,6.2,��
2018/01/19,18:10,0.865,1.444,0.910,1.708,1.152,0.484,0.861,0.831,�k��,5.4,��
2018/01/19,18:20,0.863,1.443,0.911,1.710,1.152,0.483,0.863,0.830,�k��,5.6,��
2018/01/19,18:30,0.867,1.443,0.908,1.708,1.154,0.482,0.861,0.830,�k��,5.2,��
2018/01/19,18:40,0.867,1.442,0.908,1.707,1.153,0.483,0.860,0.828,�k��,4.7,��
2018/01/19,18:50,0.867,1.443,0.910,1.708,1.153,0.483,0.863,0.830,�k��,4.7,��
2018/01/19,19:00,0.868,1.443,0.909,1.708,1.153,0.481,0.863,0.829,�k��,4.5,��
2018/01/19,19:10,0.866,1.444,0.909,1.708,1.152,0.482,0.862,0.829,�k��,3.3,��
2018/01/19,19:20,0.865,1.445,0.910,1.709,1.152,0.483,0.862,0.831,�k��,3.7,��
2018/01/19,19:30,0.869,1.443,0.909,1.708,1.154,0.483,0.862,0.829,�k�k��,2.9,��
2018/01/19,19:40,0.867,1.442,0.909,1.706,1.152,0.482,0.861,0.829,�k��,3.7,��
2018/01/19,19:50,0.867,1.443,0.910,1.709,1.149,0.482,0.862,0.828,�k��,3.1,��
2018/01/19,20:00,0.868,1.445,0.911,1.709,1.154,0.482,0.862,0.830,�k��,4.3,��
2018/01/19,20:10,0.868,1.444,0.908,1.709,1.153,0.483,0.860,0.830,�k�k��,4.5,��
2018/01/19,20:20,0.867,1.446,0.909,1.706,1.152,0.482,0.862,0.829,�k�k��,5.0,��
2018/01/19,20:30,0.866,1.442,0.909,1.709,1.152,0.482,0.863,0.828,�k�k��,5.7,��
2018/01/19,20:40,0.863,1.443,0.909,1.710,1.154,0.482,0.862,0.830,�k�k��,4.5,��
2018/01/19,20:50,0.866,1.443,0.909,1.708,1.155,0.483,0.862,0.830,�k�k��,5.2,��
2018/01/19,21:00,0.865,1.446,0.908,1.708,1.155,0.484,0.863,0.830,�k�k��,3.9,��
2018/01/19,21:10,0.866,1.443,0.910,1.709,1.154,0.482,0.861,0.829,�k�k��,4.7,��
2018/01/19,21:20,0.867,1.442,0.911,1.708,1.154,0.482,0.861,0.829,�k�k��,4.3,��
2018/01/19,21:30,0.866,1.440,0.908,1.706,1.153,0.482,0.862,0.831,�k�k��,4.5,��
2018/01/19,21:40,0.866,1.440,0.912,1.709,1.152,0.482,0.861,0.831,�k�k��,4.3,��
2018/01/19,21:50,0.866,1.443,0.909,1.708,1.154,0.482,0.861,0.829,�k�k��,4.6,��
2018/01/19,22:00,0.867,1.445,0.908,1.708,1.152,0.481,0.862,0.831,�k�k��,4.7,��
2018/01/19,22:10,0.865,1.441,0.910,1.708,1.153,0.483,0.861,0.831,�k�k��,4.4,��
2018/01/19,22:20,0.867,1.441,0.910,1.708,1.152,0.483,0.861,0.830,�k�k��,4.9,��
2018/01/19,22:30,0.865,1.442,0.910,1.705,1.154,0.481,0.861,0.829,�k�k��,4.7,��
2018/01/19,22:40,0.865,1.443,0.910,1.708,1.152,0.482,0.861,0.829,�k�k��,4.5,��
2018/01/19,22:50,0.865,1.442,0.909,1.708,1.154,0.483,0.863,0.831,�k�k��,4.5,��
2018/01/19,23:00,0.865,1.442,0.908,1.709,1.151,0.482,0.860,0.829,�k�k��,4.1,��
2018/01/19,23:10,0.866,1.443,0.910,1.706,1.153,0.481,0.862,0.829,�k�k��,3.8,��
2018/01/19,23:20,0.864,1.442,0.908,1.708,1.153,0.482,0.861,0.831,�k�k��,3.5,��
2018/01/19,23:30,0.866,1.443,0.908,1.709,1.151,0.482,0.861,0.830,�k�k��,3.6,��
2018/01/19,23:40,0.865,1.442,0.911,1.708,1.154,0.482,0.861,0.831,�k�k��,4.2,��
2018/01/19,23:50,0.866,1.443,0.909,1.706,1.153,0.484,0.861,0.828,�k�k��,4.4,��
